| time (UTC) | temp F | wind direction | speed knots | gust knots | rain 1hr in | rain 24hr in | rain mn in | humidity % | barometer mb |
| 20260510180033 | 80 | 152 | 0.0 | 0.0 | 0.00 | 0.01 | 0.01 | 80 | 1018.0 |
| 20260510175533 | 80 | 152 | 0.0 | 1.7 | 0.00 | 0.01 | 0.01 | 79 | 1018.2 |
| 20260510175029 | 79 | 151 | 0.0 | 0.0 | 0.00 | 0.01 | 0.01 | 81 | 1018.3 |
| 20260510174528 | 79 | 151 | 0.0 | 0.0 | 0.00 | 0.01 | 0.01 | 82 | 1018.3 |
| 20260510174024 | 80 | 151 | 0.0 | 0.0 | 0.00 | 0.01 | 0.01 | 82 | 1018.4 |
| 20260510173519 | 79 | 151 | 0.0 | 0.0 | 0.00 | 0.01 | 0.01 | 80 | 1018.4 |
| 20260510173016 | 79 | 151 | 0.0 | 2.6 | 0.00 | 0.01 | 0.01 | 83 | 1018.3 |
| 20260510172512 | 78 | 319 | 0.0 | 2.6 | 0.00 | 0.01 | 0.01 | 85 | 1018.4 |
| 20260510172009 | 79 | 326 | 0.0 | 1.7 | 0.00 | 0.01 | 0.01 | 85 | 1018.5 |
| 20260510171506 | 79 | 296 | 0.0 | 0.9 | 0.00 | 0.01 | 0.01 | 84 | 1018.8 |
| 20260510171002 | 78 | 296 | 0.9 | 1.7 | 0.00 | 0.01 | 0.01 | 84 | 1018.5 |
| 20260510170459 | 78 | 296 | 0.9 | 0.9 | 0.00 | 0.01 | 0.01 | 85 | 1018.8 |
| 20260510165954 | 78 | 295 | 0.9 | 1.7 | 0.00 | 0.01 | 0.01 | 85 | 1018.8 |
| 20260510165451 | 78 | 296 | 0.0 | 0.0 | 0.00 | 0.01 | 0.01 | 84 | 1018.5 |
| 20260510164948 | 77 | 297 | 0.0 | 0.9 | 0.00 | 0.01 | 0.01 | 85 | 1018.7 |
| 20260510164445 | 77 | 296 | 0.0 | 1.7 | 0.00 | 0.01 | 0.01 | 86 | 1018.8 |
| 20260510163940 | 77 | 357 | 0.0 | 1.7 | 0.00 | 0.01 | 0.01 | 86 | 1018.9 |
| 20260510163436 | 77 | 358 | 0.9 | 2.6 | 0.00 | 0.01 | 0.01 | 86 | 1018.8 |
| 20260510162931 | 76 | 275 | 0.0 | 1.7 | 0.00 | 0.01 | 0.01 | 89 | 1018.8 |
| 20260510162429 | 76 | 273 | 0.0 | 2.6 | 0.00 | 0.01 | 0.01 | 89 | 1018.7 |
| 20260510161924 | 75 | 288 | 0.9 | 0.9 | 0.00 | 0.01 | 0.01 | 91 | 1018.8 |
| 20260510161420 | 75 | 320 | 0.0 | 0.0 | 0.00 | 0.01 | 0.01 | 93 | 1019.0 |
| 20260510160918 | 74 | 320 | 0.0 | 1.7 | 0.00 | 0.01 | 0.01 | 92 | 1019.2 |
| 20260510160415 | 74 | 344 | 0.9 | 2.6 | 0.00 | 0.01 | 0.01 | 95 | 1018.9 |
| 20260510155913 | 73 | 326 | 0.0 | 1.7 | 0.00 | 0.01 | 0.01 | 95 | 1019.0 |
| 20260510155411 | 73 | 326 | 0.0 | 0.0 | 0.00 | 0.01 | 0.01 | 96 | 1019.0 |
| 20260510154907 | 73 | 325 | 0.0 | 1.7 | 0.00 | 0.01 | 0.01 | 97 | 1019.0 |
| 20260510154403 | 72 | 325 | 0.9 | 0.9 | 0.00 | 0.01 | 0.01 | 99 | 1019.2 |
| 20260510153857 | 72 | 325 | 0.0 | 0.9 | 0.00 | 0.01 | 0.01 | 99 | 1019.0 |
| 20260510153353 | 71 | 325 | 0.0 | 0.9 | 0.00 | 0.01 | 0.01 | 99 | 1019.0 |
| 20260510152850 | 71 | 325 | 1.7 | 1.7 | 0.00 | 0.01 | 0.01 | 99 | 1018.7 |
| 20260510152347 | 70 | 325 | 0.0 | 0.9 | 0.00 | 0.01 | 0.01 | 99 | 1018.8 |
| 20260510151843 | 70 | 325 | 0.9 | 2.6 | 0.00 | 0.01 | 0.01 | 99 | 1018.8 |
| 20260510151341 | 70 | 205 | 0.0 | 0.9 | 0.00 | 0.01 | 0.01 | 99 | 1018.8 |
| 20260510150837 | 70 | 205 | 0.0 | 0.0 | 0.00 | 0.01 | 0.01 | 99 | 1018.7 |
| 20260510150333 | 70 | 285 | 0.0 | 0.0 | 0.00 | 0.01 | 0.01 | 99 | 1018.8 |
| 20260510145829 | 70 | 286 | 0.9 | 0.9 | 0.00 | 0.01 | 0.01 | 99 | 1018.8 |
| 20260510145325 | 69 | 285 | 0.0 | 0.0 | 0.00 | 0.01 | 0.01 | 99 | 1018.8 |
| 20260510144822 | 69 | 284 | 0.0 | 0.0 | 0.00 | 0.01 | 0.01 | 99 | 1018.9 |
| 20260510144319 | 69 | 285 | 0.0 | 0.9 | 0.00 | 0.01 | 0.01 | 99 | 1019.0 |
| 20260510143813 | 69 | 285 | 0.0 | 0.0 | 0.00 | 0.01 | 0.01 | 99 | 1018.9 |
| 20260510143310 | 69 | 285 | 0.0 | 0.0 | 0.00 | 0.01 | 0.01 | 99 | 1018.9 |
| 20260510142806 | 69 | 285 | 0.0 | 0.0 | 0.00 | 0.01 | 0.01 | 99 | 1018.9 |
| 20260510142305 | 69 | 285 | 0.0 | 0.9 | 0.00 | 0.01 | 0.01 | 99 | 1019.0 |
| 20260510141800 | 69 | 285 | 0.0 | 0.9 | 0.00 | 0.01 | 0.01 | 99 | 1019.0 |
| 20260510141252 | 69 | 285 | 0.0 | 0.0 | 0.00 | 0.01 | 0.01 | 99 | 1019.0 |
| 20260510140749 | 68 | 285 | 0.0 | 0.9 | 0.00 | 0.01 | 0.01 | 99 | 1018.8 |
| 20260510140244 | 68 | 287 | 0.0 | 2.6 | 0.00 | 0.01 | 0.01 | 99 | 1019.0 |
| 20260510135744 | 68 | 300 | 0.0 | 1.7 | 0.00 | 0.01 | 0.01 | 99 | 1018.8 |
| 20260510135239 | 68 | 320 | 0.0 | 0.0 | 0.00 | 0.01 | 0.01 | 99 | 1018.5 |
| 20260510134737 | 67 | 320 | 0.0 | 0.0 | 0.00 | 0.01 | 0.01 | 99 | 1018.6 |
| 20260510134234 | 68 | 320 | 0.0 | 0.9 | 0.00 | 0.01 | 0.01 | 99 | 1018.6 |
| 20260510133730 | 67 | 321 | 0.0 | 0.0 | 0.00 | 0.01 | 0.01 | 99 | 1018.8 |
| 20260510133226 | 67 | 321 | 0.0 | 0.9 | 0.00 | 0.01 | 0.01 | 99 | 1018.6 |
| 20260510132722 | 67 | 321 | 0.0 | 0.0 | 0.00 | 0.01 | 0.01 | 99 | 1018.6 |
| 20260510132220 | 67 | 321 | 0.0 | 0.0 | 0.00 | 0.01 | 0.01 | 99 | 1018.6 |
| 20260510131716 | 67 | 321 | 0.0 | 0.0 | 0.00 | 0.01 | 0.01 | 99 | 1018.5 |
| 20260510131215 | 67 | 321 | 0.0 | 0.0 | 0.00 | 0.01 | 0.01 | 99 | 1018.3 |
| 20260510130710 | 67 | 321 | 0.0 | 0.0 | 0.00 | 0.01 | 0.01 | 99 | 1018.3 |
| 20260510130208 | 67 | 321 | 0.0 | 0.9 | 0.00 | 0.01 | 0.01 | 99 | 1018.3 |
| 20260510125704 | 67 | 321 | 0.0 | 0.0 | 0.00 | 0.01 | 0.01 | 99 | 1018.1 |
| 20260510125200 | 67 | 321 | 0.0 | 0.0 | 0.00 | 0.01 | 0.01 | 99 | 1018.1 |
| 20260510124657 | 67 | 320 | 0.0 | 0.0 | 0.00 | 0.01 | 0.01 | 99 | 1018.0 |
| 20260510124155 | 67 | 320 | 0.0 | 0.0 | 0.00 | 0.01 | 0.01 | 99 | 1018.0 |
| 20260510123650 | 66 | 320 | 0.0 | 0.0 | 0.00 | 0.01 | 0.01 | 99 | 1018.0 |
| 20260510123146 | 66 | 321 | 0.0 | 0.9 | 0.00 | 0.01 | 0.01 | 99 | 1017.8 |
| 20260510122642 | 66 | 321 | 0.0 | 0.9 | 0.00 | 0.01 | 0.01 | 99 | 1017.6 |
| 20260510122138 | 66 | 322 | 0.0 | 0.0 | 0.00 | 0.01 | 0.01 | 99 | 1017.6 |
| 20260510121635 | 66 | 322 | 0.0 | 0.9 | 0.00 | 0.01 | 0.01 | 99 | 1017.6 |
| 20260510121132 | 66 | 322 | 0.0 | 0.0 | 0.00 | 0.01 | 0.01 | 99 | 1017.4 |
| 20260510120630 | 66 | 323 | 0.0 | 0.0 | 0.00 | 0.01 | 0.01 | 99 | 1017.3 |
| 20260510120125 | 66 | 323 | 0.0 | 0.0 | 0.00 | 0.01 | 0.01 | 99 | 1017.3 |
| 20260510115622 | 66 | 323 | 0.0 | 0.0 | 0.00 | 0.01 | 0.01 | 99 | 1017.3 |
| 20260510115120 | 66 | 323 | 0.0 | 0.9 | 0.00 | 0.01 | 0.01 | 99 | 1017.1 |
| 20260510114615 | 65 | 323 | 0.0 | 0.0 | 0.00 | 0.01 | 0.01 | 99 | 1017.2 |
| 20260510114112 | 65 | 323 | 0.0 | 1.7 | 0.00 | 0.01 | 0.01 | 99 | 1016.9 |
| 20260510113608 | 65 | 323 | 0.0 | 0.0 | 0.00 | 0.01 | 0.01 | 99 | 1016.6 |
| 20260510113105 | 65 | 323 | 0.0 | 0.0 | 0.00 | 0.01 | 0.01 | 99 | 1017.0 |
| 20260510112601 | 65 | 323 | 0.9 | 1.7 | 0.00 | 0.01 | 0.01 | 99 | 1016.7 |
| 20260510112058 | 65 | 323 | 0.0 | 0.0 | 0.00 | 0.01 | 0.01 | 99 | 1016.3 |
| 20260510111554 | 65 | 323 | 0.0 | 0.0 | 0.00 | 0.01 | 0.01 | 99 | 1016.4 |
| 20260510111050 | 65 | 323 | 0.0 | 0.0 | 0.00 | 0.01 | 0.01 | 99 | 1016.3 |
| 20260510110546 | 66 | 323 | 0.0 | 0.0 | 0.00 | 0.01 | 0.01 | 99 | 1016.2 |
| 20260510110043 | 66 | 323 | 0.0 | 0.0 | 0.00 | 0.01 | 0.01 | 99 | 1016.0 |
| 20260510105538 | 65 | 323 | 0.0 | 0.0 | 0.00 | 0.01 | 0.01 | 99 | 1015.9 |
| 20260510105033 | 65 | 323 | 0.0 | 0.0 | 0.00 | 0.01 | 0.01 | 99 | 1015.8 |
| 20260510104530 | 65 | 323 | 0.0 | 0.0 | 0.00 | 0.01 | 0.01 | 99 | 1015.7 |
| 20260510104026 | 65 | 323 | 0.0 | 0.0 | 0.00 | 0.01 | 0.01 | 99 | 1015.9 |
| 20260510103524 | 65 | 323 | 0.0 | 0.0 | 0.00 | 0.01 | 0.01 | 99 | 1015.6 |
| 20260510103020 | 65 | 323 | 0.0 | 0.0 | 0.00 | 0.01 | 0.01 | 99 | 1015.4 |
| 20260510102516 | 66 | 323 | 0.0 | 0.0 | 0.00 | 0.01 | 0.01 | 99 | 1015.6 |
| 20260510102012 | 66 | 323 | 0.0 | 0.0 | 0.00 | 0.01 | 0.01 | 99 | 1015.5 |
| 20260510101510 | 66 | 323 | 0.0 | 0.0 | 0.00 | 0.01 | 0.01 | 99 | 1015.3 |
| 20260510101009 | 66 | 323 | 0.0 | 0.0 | 0.00 | 0.01 | 0.01 | 99 | 1015.4 |
| 20260510100504 | 66 | 323 | 0.0 | 0.0 | 0.00 | 0.01 | 0.01 | 99 | 1015.1 |
| 20260510100001 | 66 | 323 | 0.0 | 0.0 | 0.00 | 0.01 | 0.01 | 99 | 1015.1 |
| 20260510095456 | 66 | 323 | 0.0 | 0.0 | 0.00 | 0.01 | 0.01 | 99 | 1015.1 |
| 20260510094955 | 66 | 323 | 0.0 | 0.0 | 0.00 | 0.01 | 0.01 | 99 | 1015.0 |
| 20260510094451 | 66 | 323 | 0.0 | 0.0 | 0.00 | 0.01 | 0.01 | 99 | 1015.0 |
| 20260510093947 | 66 | 323 | 0.0 | 0.0 | 0.00 | 0.01 | 0.01 | 99 | 1014.8 |
| 20260510093442 | 66 | 323 | 0.0 | 0.0 | 0.00 | 0.01 | 0.01 | 99 | 1015.1 |
| 20260510092939 | 66 | 323 | 0.0 | 0.0 | 0.00 | 0.01 | 0.01 | 99 | 1015.1 |
| 20260510092437 | 66 | 323 | 0.0 | 0.0 | 0.00 | 0.01 | 0.01 | 99 | 1015.1 |
| 20260510091936 | 66 | 323 | 0.0 | 0.9 | 0.00 | 0.01 | 0.01 | 99 | 1015.0 |
| 20260510091434 | 66 | 324 | 0.0 | 0.0 | 0.00 | 0.01 | 0.01 | 99 | 1015.3 |
| 20260510090930 | 66 | 324 | 0.0 | 0.0 | 0.00 | 0.01 | 0.01 | 99 | 1015.4 |
| 20260510090426 | 66 | 324 | 0.0 | 0.9 | 0.00 | 0.01 | 0.01 | 99 | 1015.3 |
| 20260510085922 | 66 | 324 | 0.0 | 0.0 | 0.00 | 0.01 | 0.01 | 99 | 1015.2 |
| 20260510085418 | 66 | 325 | 0.0 | 0.9 | 0.00 | 0.01 | 0.01 | 99 | 1015.2 |
| 20260510084913 | 66 | 328 | 0.0 | 0.9 | 0.00 | 0.01 | 0.01 | 99 | 1015.4 |
| 20260510084411 | 66 | 328 | 0.0 | 0.0 | 0.00 | 0.01 | 0.01 | 99 | 1015.1 |
| 20260510083907 | 66 | 328 | 0.0 | 0.0 | 0.00 | 0.01 | 0.01 | 99 | 1015.3 |
| 20260510083404 | 66 | 328 | 0.0 | 0.0 | 0.00 | 0.01 | 0.01 | 99 | 1015.1 |
| 20260510082859 | 66 | 328 | 0.0 | 0.0 | 0.00 | 0.01 | 0.01 | 99 | 1015.1 |
| 20260510082357 | 66 | 328 | 0.9 | 3.5 | 0.00 | 0.01 | 0.01 | 99 | 1015.2 |
| 20260510081855 | 66 | 232 | 0.0 | 0.9 | 0.07 | 0.01 | 0.01 | 99 | 1015.0 |
| 20260510081352 | 66 | 232 | 0.0 | 0.0 | 0.07 | 0.01 | 0.01 | 99 | 1015.0 |
| 20260510080849 | 66 | 232 | 0.0 | 0.9 | 0.00 | 0.00 | 0.00 | 99 | 1014.8 |
| 20260510080342 | 66 | 231 | 0.0 | 0.0 | 0.00 | 0.00 | 0.00 | 99 | 1014.9 |
| 20260510075840 | 66 | 231 | 0.0 | 0.0 | 0.00 | 0.00 | 0.00 | 99 | 1014.9 |
| 20260510075338 | 66 | 231 | 0.0 | 0.0 | 0.00 | 0.00 | 0.00 | 99 | 1014.7 |
| 20260510074834 | 66 | 231 | 0.0 | 0.0 | 0.00 | 0.00 | 0.00 | 99 | 1014.8 |
| 20260510074331 | 66 | 231 | 0.0 | 0.0 | 0.00 | 0.00 | 0.00 | 99 | 1014.6 |
| 20260510073827 | 66 | 231 | 0.0 | 0.0 | 0.00 | 0.00 | 0.00 | 99 | 1014.8 |
| 20260510073323 | 66 | 231 | 0.0 | 0.0 | 0.00 | 0.00 | 0.00 | 99 | 1014.8 |
| 20260510072819 | 66 | 231 | 0.0 | 0.0 | 0.00 | 0.00 | 0.00 | 99 | 1014.8 |
| 20260510072316 | 67 | 231 | 0.0 | 0.0 | 0.00 | 0.00 | 0.00 | 99 | 1014.7 |
| 20260510071812 | 67 | 231 | 0.0 | 0.0 | 0.00 | 0.00 | 0.00 | 99 | 1014.7 |
| 20260510071303 | 67 | 231 | 0.0 | 0.0 | 0.00 | 0.00 | 0.00 | 99 | 1015.0 |
| 20260510070802 | 67 | 231 | 0.0 | 0.0 | 0.00 | 0.00 | 0.00 | 99 | 1014.8 |
| 20260510070259 | 67 | 231 | 0.0 | 0.0 | 0.00 | 0.00 | 0.00 | 99 | 1015.1 |
| 20260510065758 | 67 | 231 | 0.0 | 0.0 | 0.00 | 0.00 | 0.00 | 99 | 1014.7 |
| 20260510065255 | 67 | 231 | 0.0 | 0.0 | 0.00 | 0.00 | 0.00 | 99 | 1015.0 |
| 20260510064752 | 67 | 231 | 0.0 | 0.0 | 0.00 | 0.00 | 0.00 | 99 | 1014.8 |
| 20260510064250 | 67 | 231 | 0.0 | 0.0 | 0.00 | 0.00 | 0.00 | 99 | 1015.0 |
| 20260510063745 | 67 | 232 | 0.0 | 0.0 | 0.00 | 0.00 | 0.00 | 99 | 1015.0 |
| 20260510063242 | 67 | 231 | 0.0 | 0.0 | 0.00 | 0.00 | 0.00 | 99 | 1015.3 |
| 20260510062739 | 67 | 231 | 0.0 | 0.0 | 0.00 | 0.00 | 0.00 | 99 | 1015.4 |
| 20260510062234 | 67 | 231 | 0.0 | 0.0 | 0.00 | 0.00 | 0.00 | 99 | 1015.3 |
| 20260510061730 | 67 | 231 | 0.0 | 0.0 | 0.00 | 0.00 | 0.00 | 99 | 1015.3 |
| 20260510061227 | 67 | 232 | 0.0 | 0.0 | 0.00 | 0.00 | 0.00 | 99 | 1015.4 |
| 20260510060723 | 67 | 232 | 0.9 | 0.9 | 0.00 | 0.00 | 0.00 | 99 | 1015.3 |
| 20260510060220 | 67 | 231 | 0.0 | 0.0 | 0.00 | 0.00 | 0.00 | 99 | 1015.3 |
| 20260510055717 | 67 | 231 | 0.0 | 0.0 | 0.00 | 0.00 | 0.00 | 99 | 1015.4 |
| 20260510055216 | 67 | 231 | 0.0 | 0.0 | 0.00 | 0.00 | 0.00 | 99 | 1015.4 |
| 20260510054716 | 67 | 231 | 0.0 | 0.9 | 0.00 | 0.00 | 0.00 | 99 | 1015.2 |
| 20260510054211 | 67 | 231 | 0.0 | 0.0 | 0.00 | 0.00 | 0.00 | 99 | 1015.4 |
| 20260510053706 | 67 | 231 | 0.0 | 0.0 | 0.00 | 0.00 | 0.00 | 99 | 1015.4 |
| 20260510053203 | 67 | 231 | 0.0 | 0.0 | 0.00 | 0.00 | 0.00 | 99 | 1015.2 |
| 20260510052658 | 67 | 231 | 0.0 | 0.0 | 0.00 | 0.00 | 0.00 | 99 | 1015.4 |
| 20260510052154 | 67 | 231 | 0.0 | 0.0 | 0.00 | 0.00 | 0.00 | 99 | 1015.2 |
| 20260510051650 | 67 | 231 | 0.0 | 0.0 | 0.00 | 0.00 | 0.00 | 99 | 1015.2 |
| 20260510051147 | 67 | 231 | 0.0 | 0.0 | 0.00 | 0.00 | 0.00 | 99 | 1015.4 |
| 20260510050644 | 67 | 231 | 0.0 | 0.0 | 0.00 | 0.00 | 0.00 | 99 | 1015.2 |
| 20260510050142 | 67 | 231 | 0.0 | 0.0 | 0.00 | 0.00 | 0.00 | 99 | 1015.6 |
| 20260510045638 | 67 | 231 | 0.0 | 0.0 | 0.00 | 1.57 | 1.57 | 99 | 1015.2 |
| 20260510045135 | 67 | 231 | 0.0 | 0.0 | 0.00 | 1.57 | 1.57 | 99 | 1015.1 |
| 20260510044631 | 67 | 231 | 0.0 | 0.0 | 0.00 | 1.57 | 1.57 | 99 | 1015.3 |
| 20260510044128 | 67 | 231 | 0.0 | 0.0 | 0.00 | 1.57 | 1.57 | 99 | 1015.1 |
| 20260510043624 | 67 | 231 | 0.0 | 0.0 | 0.00 | 1.57 | 1.57 | 99 | 1015.1 |
| 20260510043121 | 67 | 231 | 0.0 | 0.0 | 0.00 | 1.57 | 1.57 | 99 | 1015.1 |
| 20260510042618 | 67 | 231 | 0.0 | 0.0 | 0.00 | 1.57 | 1.57 | 99 | 1014.9 |
| 20260510042114 | 67 | 231 | 0.0 | 0.0 | 0.00 | 1.57 | 1.57 | 99 | 1015.1 |
| 20260510041612 | 68 | 231 | 0.0 | 0.0 | 0.00 | 1.57 | 1.57 | 99 | 1015.1 |
| 20260510041109 | 68 | 231 | 0.0 | 0.0 | 0.00 | 1.57 | 1.57 | 99 | 1015.0 |
| 20260510040606 | 68 | 231 | 0.0 | 0.0 | 0.00 | 1.57 | 1.57 | 99 | 1015.1 |
| 20260510035558 | 68 | 231 | 0.0 | 0.0 | 0.00 | 1.57 | 1.57 | 99 | 1014.4 |
| 20260510035057 | 68 | 231 | 0.0 | 0.0 | 0.00 | 1.57 | 1.57 | 99 | 1014.5 |
| 20260510034556 | 68 | 231 | 0.0 | 0.0 | 0.00 | 1.57 | 1.57 | 99 | 1014.8 |
| 20260510034053 | 68 | 231 | 0.0 | 0.0 | 0.00 | 1.57 | 1.57 | 99 | 1015.2 |
| 20260510033549 | 68 | 233 | 0.9 | 0.9 | 0.00 | 1.57 | 1.57 | 99 | 1015.5 |
| 20260510033047 | 68 | 233 | 0.0 | 0.0 | 0.00 | 1.57 | 1.57 | 99 | 1015.7 |
| 20260510032543 | 68 | 233 | 0.0 | 0.0 | 0.00 | 1.57 | 1.57 | 99 | 1015.8 |
| 20260510032038 | 68 | 233 | 0.0 | 0.0 | 0.00 | 1.57 | 1.57 | 99 | 1015.8 |
| 20260510031533 | 68 | 233 | 0.0 | 0.0 | 0.00 | 1.57 | 1.57 | 99 | 1015.7 |
| 20260510031029 | 68 | 233 | 0.0 | 0.0 | 0.00 | 1.57 | 1.57 | 99 | 1015.8 |
| 20260510030525 | 68 | 233 | 0.0 | 0.0 | 0.00 | 1.57 | 1.57 | 99 | 1015.6 |
| 20260510030022 | 68 | 233 | 0.0 | 0.0 | 0.00 | 1.57 | 1.57 | 99 | 1015.8 |
| 20260510025519 | 68 | 233 | 0.0 | 0.0 | 0.00 | 1.57 | 1.57 | 99 | 1015.7 |
| 20260510025017 | 68 | 233 | 0.0 | 0.0 | 0.00 | 1.57 | 1.57 | 99 | 1015.4 |
| 20260510024513 | 68 | 233 | 0.0 | 0.0 | 0.00 | 1.57 | 1.57 | 99 | 1015.5 |
| 20260510024009 | 68 | 233 | 0.0 | 0.0 | 0.00 | 1.57 | 1.57 | 99 | 1015.0 |
| 20260510023506 | 68 | 233 | 0.0 | 0.0 | 0.00 | 1.57 | 1.57 | 99 | 1015.1 |
| 20260510023003 | 68 | 233 | 0.0 | 0.0 | 0.00 | 1.57 | 1.57 | 99 | 1014.9 |
| 20260510022502 | 68 | 233 | 0.0 | 0.0 | 0.00 | 1.57 | 1.57 | 99 | 1015.1 |
| 20260510022002 | 68 | 233 | 0.0 | 0.0 | 0.00 | 1.57 | 1.57 | 99 | 1015.2 |
| 20260510021459 | 68 | 233 | 0.0 | 0.0 | 0.00 | 1.57 | 1.57 | 99 | 1015.2 |
| 20260510020956 | 68 | 233 | 0.0 | 0.0 | 0.00 | 1.57 | 1.57 | 99 | 1015.2 |
| 20260510020450 | 68 | 233 | 0.0 | 0.0 | 0.00 | 1.57 | 1.57 | 99 | 1015.4 |
| 20260510015946 | 68 | 233 | 0.0 | 0.0 | 0.00 | 1.57 | 1.57 | 99 | 1015.2 |
| 20260510015442 | 68 | 233 | 0.0 | 0.0 | 0.00 | 1.57 | 1.57 | 99 | 1015.5 |
| 20260510014937 | 68 | 233 | 0.0 | 0.0 | 0.00 | 1.57 | 1.57 | 99 | 1015.2 |
| 20260510014435 | 68 | 233 | 0.0 | 0.0 | 0.00 | 1.57 | 1.57 | 99 | 1014.9 |
| 20260510013931 | 68 | 233 | 0.0 | 0.0 | 0.00 | 1.57 | 1.57 | 99 | 1014.5 |
| 20260510013426 | 68 | 233 | 0.0 | 0.0 | 0.00 | 1.57 | 1.57 | 99 | 1014.6 |
| 20260510012922 | 68 | 233 | 0.0 | 0.0 | 0.00 | 1.57 | 1.57 | 99 | 1014.4 |
| 20260510012417 | 68 | 233 | 0.0 | 0.0 | 0.00 | 1.57 | 1.57 | 99 | 1014.1 |
| 20260510011912 | 68 | 233 | 0.0 | 0.0 | 0.00 | 1.57 | 1.57 | 99 | 1014.0 |
| 20260510011407 | 68 | 233 | 0.0 | 0.0 | 0.00 | 1.57 | 1.57 | 99 | 1014.2 |
| 20260510010904 | 68 | 233 | 0.0 | 0.9 | 0.00 | 1.57 | 1.57 | 99 | 1014.3 |
| 20260510010401 | 68 | 233 | 0.0 | 0.0 | 0.05 | 1.57 | 1.57 | 99 | 1013.9 |
| 20260510005858 | 68 | 233 | 0.0 | 0.9 | 0.05 | 1.57 | 1.57 | 99 | 1014.0 |
| 20260510005354 | 68 | 232 | 0.0 | 0.9 | 0.00 | 1.56 | 1.56 | 99 | 1014.0 |
| 20260510004851 | 68 | 233 | 0.0 | 0.0 | 0.00 | 1.56 | 1.56 | 99 | 1014.4 |
| 20260510004349 | 68 | 233 | 1.7 | 1.7 | 0.07 | 1.56 | 1.56 | 99 | 1014.3 |
| 20260510003847 | 68 | 233 | 0.0 | 0.9 | 0.07 | 1.56 | 1.56 | 99 | 1014.8 |
| 20260510003343 | 68 | 233 | 0.0 | 0.0 | 0.00 | 1.55 | 1.55 | 99 | 1014.8 |
| 20260510002842 | 68 | 233 | 0.0 | 0.9 | 0.00 | 1.55 | 1.55 | 99 | 1014.6 |
| 20260510002339 | 68 | 233 | 0.0 | 0.0 | 0.00 | 1.55 | 1.55 | 99 | 1014.2 |
| 20260510001836 | 68 | 232 | 0.0 | 0.0 | 0.05 | 1.55 | 1.55 | 99 | 1014.0 |
| 20260510001334 | 68 | 232 | 0.0 | 0.0 | 0.05 | 1.55 | 1.55 | 99 | 1013.6 |
| 20260510000830 | 68 | 232 | 0.0 | 0.9 | 0.00 | 1.54 | 1.54 | 99 | 1013.5 |
| 20260510000328 | 68 | 232 | 0.0 | 0.9 | 0.00 | 1.54 | 1.54 | 99 | 1013.8 |
| 20260509235824 | 68 | 232 | 0.0 | 0.0 | 0.00 | 1.54 | 1.54 | 99 | 1014.2 |
| 20260509235321 | 68 | 232 | 0.9 | 0.9 | 0.00 | 1.54 | 1.54 | 99 | 1014.3 |
| 20260509234817 | 68 | 232 | 0.0 | 0.0 | 0.00 | 1.54 | 1.54 | 99 | 1014.6 |
| 20260509234313 | 68 | 232 | 0.0 | 0.0 | 0.00 | 1.54 | 1.54 | 99 | 1014.4 |
| 20260509233812 | 68 | 232 | 0.0 | 0.9 | 0.00 | 1.54 | 1.54 | 99 | 1014.1 |
| 20260509233309 | 68 | 232 | 0.0 | 0.0 | 0.00 | 1.54 | 1.54 | 99 | 1014.3 |
| 20260509232805 | 68 | 232 | 0.0 | 0.0 | 0.07 | 1.54 | 1.54 | 99 | 1014.6 |
| 20260509232306 | 68 | 232 | 0.0 | 0.0 | 0.07 | 1.54 | 1.54 | 99 | 1014.7 |
| 20260509231759 | 68 | 232 | 0.0 | 0.0 | 0.00 | 1.53 | 1.53 | 99 | 1014.2 |
| 20260509231256 | 68 | 232 | 0.0 | 0.0 | 0.00 | 1.53 | 1.53 | 99 | 1014.4 |
| 20260509230754 | 68 | 232 | 0.0 | 0.0 | 0.00 | 1.53 | 1.53 | 99 | 1014.4 |
| 20260509230250 | 68 | 232 | 0.0 | 0.0 | 0.07 | 1.53 | 1.53 | 99 | 1014.3 |
| 20260509225745 | 68 | 232 | 0.0 | 0.0 | 0.07 | 1.53 | 1.53 | 99 | 1014.6 |
| 20260509225242 | 68 | 231 | 0.0 | 0.0 | 0.00 | 1.52 | 1.52 | 99 | 1014.2 |
| 20260509224737 | 68 | 231 | 0.0 | 0.0 | 0.05 | 1.52 | 1.52 | 99 | 1014.5 |
| 20260509224235 | 68 | 235 | 0.0 | 0.0 | 0.05 | 1.52 | 1.52 | 99 | 1014.3 |
| 20260509223732 | 68 | 235 | 0.0 | 0.0 | 0.07 | 1.51 | 1.51 | 99 | 1014.1 |
| 20260509223229 | 68 | 235 | 0.0 | 0.0 | 0.12 | 1.51 | 1.51 | 99 | 1013.5 |
| 20260509222725 | 68 | 235 | 0.0 | 0.0 | 0.12 | 1.50 | 1.50 | 99 | 1013.2 |
| 20260509222220 | 67 | 235 | 0.0 | 0.0 | 0.12 | 1.49 | 1.49 | 99 | 1013.4 |
| 20260509221716 | 67 | 236 | 0.0 | 0.0 | 0.12 | 1.48 | 1.48 | 99 | 1013.7 |
| 20260509221213 | 67 | 235 | 0.0 | 0.0 | 0.12 | 1.47 | 1.47 | 99 | 1014.0 |
| 20260509220709 | 67 | 236 | 0.0 | 0.0 | 0.05 | 1.46 | 1.46 | 99 | 1014.1 |
| 20260509220206 | 67 | 236 | 0.0 | 0.0 | 0.07 | 1.45 | 1.45 | 99 | 1014.5 |
| 20260509215701 | 67 | 236 | 0.0 | 0.0 | 0.07 | 1.45 | 1.45 | 99 | 1014.2 |
| 20260509215158 | 67 | 237 | 0.0 | 0.0 | 0.00 | 1.44 | 1.44 | 99 | 1013.8 |
| 20260509214655 | 67 | 236 | 0.0 | 0.0 | 0.00 | 1.44 | 1.44 | 99 | 1013.8 |
| 20260509214152 | 68 | 236 | 0.0 | 0.0 | 0.00 | 1.44 | 1.44 | 99 | 1013.6 |
| 20260509213649 | 68 | 236 | 0.0 | 0.0 | 0.00 | 1.44 | 1.44 | 99 | 1013.5 |
| 20260509213144 | 68 | 236 | 0.0 | 0.0 | 0.00 | 1.44 | 1.44 | 99 | 1013.5 |
| 20260509212642 | 68 | 236 | 0.0 | 0.0 | 0.00 | 1.44 | 1.44 | 99 | 1013.5 |
| 20260509212138 | 68 | 236 | 0.0 | 0.0 | 0.00 | 1.44 | 1.44 | 99 | 1013.8 |
| 20260509211635 | 68 | 236 | 0.0 | 0.0 | 0.00 | 1.44 | 1.44 | 99 | 1013.4 |
| 20260509211132 | 68 | 236 | 0.0 | 0.0 | 0.00 | 1.44 | 1.44 | 99 | 1013.2 |
| 20260509210629 | 67 | 236 | 0.0 | 0.0 | 0.05 | 1.44 | 1.44 | 99 | 1013.3 |
| 20260509210126 | 67 | 236 | 0.0 | 0.0 | 0.05 | 1.44 | 1.44 | 99 | 1012.9 |
| 20260509205620 | 67 | 236 | 0.0 | 0.0 | 0.07 | 1.43 | 1.43 | 99 | 1012.5 |
| 20260509205115 | 67 | 236 | 0.0 | 0.0 | 0.07 | 1.43 | 1.43 | 99 | 1012.6 |
| 20260509204611 | 67 | 236 | 0.0 | 0.9 | 0.05 | 1.42 | 1.42 | 99 | 1012.9 |
| 20260509204102 | 68 | 237 | 0.0 | 0.0 | 0.05 | 1.42 | 1.42 | 99 | 1013.3 |
| 20260509203558 | 67 | 237 | 0.0 | 0.0 | 0.07 | 1.41 | 1.41 | 99 | 1013.3 |
| 20260509203056 | 67 | 236 | 0.0 | 0.9 | 0.14 | 1.41 | 1.41 | 99 | 1013.2 |
| 20260509202550 | 67 | 236 | 0.0 | 0.0 | 0.12 | 1.40 | 1.40 | 99 | 1012.9 |
| 20260509202041 | 67 | 235 | 0.0 | 0.0 | 0.17 | 1.39 | 1.39 | 99 | 1012.8 |
| 20260509201536 | 67 | 234 | 0.0 | 0.0 | 0.31 | 1.38 | 1.38 | 99 | 1013.4 |
| 20260509201034 | 67 | 241 | 0.9 | 0.9 | 0.42 | 1.36 | 1.36 | 99 | 1013.9 |
| 20260509200533 | 67 | 248 | 0.0 | 0.0 | 0.26 | 1.32 | 1.32 | 99 | 1014.8 |
| 20260509200030 | 67 | 247 | 0.0 | 0.0 | 0.12 | 1.29 | 1.29 | 99 | 1014.8 |
| 20260509195525 | 67 | 245 | 0.0 | 0.0 | 0.17 | 1.28 | 1.28 | 99 | 1014.7 |
| 20260509195020 | 66 | 240 | 0.0 | 0.0 | 0.31 | 1.27 | 1.27 | 99 | 1014.8 |
| 20260509194515 | 66 | 242 | 0.0 | 0.0 | 0.35 | 1.25 | 1.25 | 99 | 1014.9 |
| 20260509194013 | 66 | 248 | 0.9 | 1.7 | 0.19 | 1.21 | 1.21 | 99 | 1015.1 |
| 20260509193512 | 66 | 242 | 0.0 | 0.0 | 0.12 | 1.19 | 1.19 | 99 | 1014.4 |
| 20260509193009 | 66 | 243 | 0.0 | 0.0 | 0.19 | 1.18 | 1.18 | 99 | 1014.3 |
| 20260509192505 | 66 | 246 | 0.0 | 0.9 | 0.19 | 1.17 | 1.17 | 99 | 1014.2 |
| 20260509192000 | 66 | 247 | 0.0 | 0.0 | 0.07 | 1.14 | 1.14 | 99 | 1014.6 |
| 20260509191456 | 66 | 248 | 0.0 | 0.9 | 0.12 | 1.14 | 1.14 | 99 | 1014.9 |
| 20260509190952 | 66 | 248 | 0.0 | 0.0 | 0.05 | 1.13 | 1.13 | 99 | 1014.5 |
| 20260509190449 | 66 | 249 | 0.0 | 0.0 | 0.07 | 1.12 | 1.12 | 99 | 1014.5 |
| 20260509185947 | 66 | 249 | 0.0 | 0.0 | 0.12 | 1.12 | 1.12 | 99 | 1014.6 |
| 20260509185444 | 65 | 246 | 0.0 | 0.0 | 0.12 | 1.11 | 1.11 | 99 | 1014.5 |
| 20260509184940 | 65 | 246 | 0.0 | 0.0 | 0.19 | 1.10 | 1.10 | 99 | 1014.4 |
| 20260509184438 | 65 | 246 | 0.0 | 0.0 | 0.12 | 1.08 | 1.08 | 99 | 1014.6 |
| 20260509183934 | 65 | 248 | 0.0 | 0.0 | 0.17 | 1.07 | 1.07 | 99 | 1014.9 |
| 20260509183429 | 65 | 243 | 0.0 | 0.0 | 0.12 | 1.05 | 1.05 | 99 | 1014.9 |
| 20260509182926 | 66 | 247 | 0.0 | 0.0 | 0.19 | 1.04 | 1.04 | 99 | 1014.8 |
| 20260509182422 | 65 | 247 | 0.0 | 0.0 | 0.19 | 1.03 | 1.03 | 99 | 1014.7 |
| 20260509181920 | 65 | 233 | 0.0 | 0.0 | 0.07 | 1.01 | 1.01 | 99 | 1014.7 |
| 20260509181418 | 65 | 234 | 0.0 | 0.0 | 0.05 | 1.00 | 1.00 | 99 | 1014.6 |
| 20260509180915 | 65 | 233 | 0.0 | 0.0 | 0.12 | 1.00 | 1.00 | 99 | 1014.2 |